Regional Weather Roundup
Issued by NWS

Home | Current Version | Previous Version | Text Only | Print | Product List | Glossary On
Versions: 1 2 3 4 5 6 7 8 9 10 11 12 13 14 15 16 17 18 19 20 21 22 23 24 25 26 27 28 29 30 31 32 33 34 35 36 37 38 39 40 41 42 43 44 45 46 47 48 49 50
924
ASUS43 KMKX 270400
RWRWI

WISCONSIN REGIONAL WEATHER ROUNDUP
NATIONAL WEATHER SERVICE MILWAUKEE/SULLIVAN WI
1100 PM CDT WED APR 26 2017

NOTE: "FAIR" INDICATES FEW OR NO CLOUDS BELOW 12,000 FEET WITH NO
SIGNIFICANT WEATHER AND/OR OBSTRUCTIONS TO VISIBILITY.

WIZ001-002-006>008-014>016-023>028-270500-
NORTHWEST WISCONSIN

CITY           SKY/WX    TMP DP  RH WIND       PRES   REMARKS
SUPERIOR ARPT  CLOUDY    30  25  84 CALM      29.63F
ASHLAND        MIX PCPN  29  28  96 N13       29.61F FOG     WCI  19
HAYWARD        CLOUDY    31  28  89 N7        29.56F WCI  24
SIREN          CLOUDY    33  30  86 NE8       29.58F WCI  27
CUMBERLAND     CLOUDY    32  30  93 N9        29.56R WCI  24
RICE LAKE      CLOUDY    35  30  85 N9        29.56S WCI  27
CHETEK         CLOUDY    35  32  87 N8        29.55S WCI  29
LADYSMITH      CLOUDY    34  31  89 N10       29.55F WCI  26
EAU CLAIRE     CLOUDY    37  34  89 N7        29.52F WCI  32
MENOMONIE      CLOUDY    37  34  87 NW9       29.55S WCI  31
NEW RICHMOND   CLOUDY    35  32  88 N12       29.57S WCI  27
OSCEOLA        CLOUDY    36  31  85 N7        29.61R WCI  30
$$

WIZ003>005-009-010-017-018-270500-
NORTH CENTRAL WISCONSIN

CITY           SKY/WX    TMP DP  RH WIND       PRES   REMARKS
MANITOWISH WTR CLOUDY    31  31 100 N7        29.51F WCI  24
ARBOR VITAE    CLOUDY    34  32  94 N13       29.48F WCI  25
WOODRUFF       CLOUDY    34  32  94 N13       29.48F WCI  25
RHINELANDER    CLOUDY    35  35 100 N6        29.48S WCI  30
EAGLE RIVER    CLOUDY    32  32 100 N12       29.47F WCI  23
LAND O LAKES   CLOUDY    32  32  99 N9        29.50F WCI  24
PHILLIPS       CLOUDY    31  31  96 N8        29.50F WCI  24
TOMAHAWK       CLOUDY    34  32  94 N6        29.49F WCI  29
MEDFORD        CLOUDY    36  34  94 NW7       29.48F WCI  30
MERRILL        CLOUDY    37  37  97 N6        29.48S WCI  33
$$

WIZ029-030-035-036-043>047-270500-
CENTRAL WISCONSIN

CITY           SKY/WX    TMP DP  RH WIND       PRES   REMARKS
WAUSAU         CLOUDY    40  38  93 N8        29.46R WCI  34
MOSINEE        CLOUDY    41  41 100 NW7       29.48R
MARSHFIELD     CLOUDY    39  36  89 NW9       29.47S WCI  33
STEVENS POINT  CLOUDY    41  39  93 W7        29.48R
WAUPACA        CLOUDY    47  43  85 W6        29.48R
WAUTOMA        CLOUDY    45  43  93 NW10      29.48R
WISC RAPIDS    CLOUDY    41  40  96 NW10      29.49R
CAMP DOUGLAS   CLOUDY    41  41 100 NW9       29.49F
$$

WIZ011>013-019>022-031-037>040-048>050-270500-
NORTHEAST WISCONSIN

CITY           SKY/WX    TMP DP  RH WIND       PRES   REMARKS
ANTIGO         CLOUDY    40  40 100 NW8       29.45F WCI  35
SHAWANO        CLOUDY    51  48  89 W5        29.44F
OCONTO         CLOUDY    56  51  85 W6        29.42S
STURGEON BAY   CLOUDY    56  52  86 W7        29.43F
GREEN BAY      CLOUDY    53  51  93 W9        29.44S
MANITOWOC      NOT AVBL
APPLETON       CLOUDY    48  46  93 W10       29.44S
CLINTONVILLE   CLOUDY    46  45  93 W5        29.44F
OSHKOSH        CLOUDY    48  46  93 W12       29.45S
$$

WIZ032>034-041-042-053>061-270500-
SOUTHWEST WISCONSIN

CITY           SKY/WX    TMP DP  RH WIND       PRES   REMARKS
LA CROSSE      CLOUDY    43  39  86 N8        29.51F
SPARTA         CLOUDY    41  39  93 NW9       29.52S
VIROQUA        CLOUDY    40  40 100 NW7       29.49F WCI  35
BOSCOBEL       CLOUDY    45  39  79 VRB7      29.51F
PRAIRIE DU CHI CLOUDY    43  38  83 NW9       29.52F
PLATTEVILLE    CLOUDY    45  44  97 NW8       29.50R
$$

WIZ056-057-062-063-064-067-068-270500-
SOUTH CENTRAL WISCONSIN

CITY           SKY/WX    TMP DP  RH WIND       PRES   REMARKS
REEDSBURG      CLOUDY    43  43  99 NW10      29.49S
BARABOO/DELLS  CLOUDY    44  42  95 NW7       29.49R FOG
LONE ROCK      NOT AVBL
MINERAL POINT  CLOUDY    46  45  93 NW7       29.48F
MADISON        CLOUDY    50  47  89 W6        29.46F
MIDDLETON      CLOUDY    50  47  92 NW8       29.48S
WATERTOWN      CLOUDY    53  53 100 W6        29.46R
MONROE         CLOUDY    46  45  93 NW8       29.47F
JANESVILLE     CLOUDY    52  52 100 NW5       29.46F
$$

WIZ051-052-058>065-066-070>072-270500-
SOUTHEAST WISCONSIN

CITY           SKY/WX    TMP DP  RH WIND       PRES   REMARKS
MILWAUKEE      LGT RAIN  60  56  86 W5        29.45S
WAUKESHA       LGT RAIN  54  52  94 W6        29.46
MILWAUKEE/TIMM CLOUDY    55  50  82 SW6       29.45S
RACINE         CLOUDY    60  54  80 W8        29.47S
KENOSHA        LGT RAIN  59  55  87 SW5       29.45F
FOND DU LAC    CLOUDY    50  46  86 NW9       29.46R
SHEBOYGAN      LGT RAIN  58  55  90 W7        29.43F
WEST BEND      CLOUDY    55  54  94 W6        29.44S
JUNEAU         CLOUDY    50  49  94 NW7       29.47R
$$

LSZ147-162-270500-
LAKE SUPERIOR

STATION/POSITION TIME  TEMP    WIND        PRES    WAVE
                       AIR SEA DIR/SP/G            HT/PER
                 (UTC) (F)     (DEG/KT/KT) (MB)    (FT/S)
DEVILS ISLAND    0300   28      10/ 17/ 19 1004.5R
SAXON HARBOR     0330   32      30/ 17/ 19 1002.7S
$$

LMZ867-665-643>646-270500-
LAKE MICHIGAN

STATION/POSITION TIME  TEMP    WIND        PRES    WAVE
                       AIR SEA DIR/SP/G            HT/PER
                 (UTC) (F)     (DEG/KT/KT) (MB)    (FT/S)
CHAMBERS ISLAND  0340   57     210/  3/  7  996.3S
N MID LAKE BUOY  0250   42 37  180/  8/ 10  998.7R   2/ 5
NORTHPORT PIER   0340   47     230/  1/  4  996.6F
KEWAUNEE LAKESHO 0330   61     270/  6/ 11  996.2R
SHEBOYGAN LAKESH 0300   61     260/  7/  8  996.7R
PORT WASHINGTON  0340   60     250/  3/  7  998.0S
MILWAUKEE LAKESH 0330   60     290/  5/  5   N/A
S MID LAKE BUOY  0250   50 42  180/  4/  4  998.0R   1
KENOSHA   LAKESH 0300   62     230/  4/  6  998.0
$$

TC  - TEMPERATURE IN CELSIUS
VSB - VISIBILITY IN STATUTE MILES
WCI - WIND CHILL INDEX
HX  - HEAT INDEX





USA.gov is the U.S. government's official web portal to all federal, state and local government web resources and services.